星链-36620(STARLINK-36620)

导读

STARLINK-36620是美国SpaceX公司星链星座的组网卫星,于2026年2月2日由猎鹰9号火箭从范登堡基地发射入轨,这是SpaceX 2026年第14次星链发射任务。作为全球低轨卫星互联网系统的组成部分,它将进一步完善星链星座覆盖能力,为全球地面、海洋、航空用户提供高速低时延宽带服务,推动星链手机直连、军事通信等业务发展。截至发射当日,SpaceX累计发射星链卫星超1.1万颗,在轨运营卫星超9600颗。

基本信息
目录编号:
67654
目录名称:
STARLINK-36620
国际标识:
2026-022G
轨道中心:
EARTH
卫星名称:
星链-36620
卫星全名:
星链-36620(STARLINK-36620)
卫星状态:
在轨 (已飞行223 天)
发射日期:
2026-02-02 UTC
国别 :
美国 (US)
星等 :
--
该卫星已列入 空间交会检测服务 Space Conjunction Data Service (SCDS) ,当前飞行风险评估等级: 无高风险
轨道信息
数据来源 国际轨道数据 AOE轨道数据
星历时间 2026-09-12T23:42:13+0800
16小时前
查看轨道信息
2026-09-06T22:00:00+0800
6天前
查看轨道信息
半长轴 6843.686km 6843.655km
偏心率 0.0001282 0.0001368
轨道倾角 97.283° 97.284°
近地点辐角 99.607° 75.956°
升交点赤经 287.312° 281.320°
平近点角 260.532° 271.887°
近地点 464.671km 464.581km
远地点 466.427km 466.455km
周期 93.906分钟 93.906分钟
每日圈数 15.334431 15.334536
详细信息
固有亮度:
5
最大亮度:
2.5
卫星平台:
Starlink V1.0
覆盖范围:
全球
运营商:
太空探索技术公司
运营商所在国:
美国
制造商(研发单位):
太空探索技术公司
制造商所在国:
美国
使用方式:
暂无
卫星简介
Starlink 计划是 SpaceX 推出的全球卫星互联网项目,通过发射低轨道卫星,为全球尤其是偏远地区提供高速、低延迟的互联网服务。自 2019 年起,Starlink 已部署数千颗卫星,旨在缩小全球数字鸿沟,推动互联网普及。该项目还为军事、航空等行业提供通信支持,带来广泛经济效益。
2D轨道图
3D轨道图
轨道高度分析图
轨道倾角分析图
轨道综合分析图
查看轨道综合分析图
交会数据列表
事件ID 空间交会对象 最接近时刻(TCA) 交会距离 交会风险概率(CRP) 交会风险指数(CRI) 操作
CDM_260913-124704-791606-765421
2026-09-13T
12:47:46+0000
0.634 km
远距离
1.13319E-4 高风险 0.76
CDM_260913-133404-791606-765421
2026-09-13T
13:34:45+0000
0.996 km
远距离
2.749521E-5 中风险 0.64
CDM_260915-122404-780406-765421
2026-09-15T
12:24:32+0000
2.165 km
极远距离
2.263735E-6 低风险 0.42
CDM_260914-050606-542406-765421
2026-09-14T
05:06:38+0000
2.880 km
极远距离
1.376854E-6 低风险 0.38
CDM_260915-195304-735106-765421
2026-09-15T
19:53:09+0000
2.792 km
极远距离
1.21209E-6 低风险 0.37
与全量物体交会距离演化趋势
与全量物体交会风险概率演化趋势